Location: Unspecified
(49.2170°N, 0.0000°E)
Time: 14:47:40
(UTC+00:00)

Tiros 1 despin weight - Pass Details

Date: 24 January 2021
Orbit: 593 x 642 km, 48.2° (Epoch: 06 March)

Event Time Altitude Azimuth Distance (km) Brightness Sun altitude
Rises 18:35:13 0° 280° (W) 2,860 ? -18.0°
Reaches altitude 10° 18:37:33 10° 276° (W) 1,948 ? -18.3°
Maximum altitude 18:41:54 54° 199° (SSW) 726 ? -19.1°
Enters shadow 18:43:48 30° 136° (SE) 1,070 ? -19.4°
Drops below altitude 10° 18:46:13 10° 122° (ESE) 1,924 - -19.7°
Sets 18:48:31 0° 118° (ESE) 2,821 - -20.1°
